Regional Weather Roundup
Issued by NWS

Home | Current Version | Previous Version | Text Only | Print | Product List | Glossary On
Versions: 1 2 3 4 5 6 7 8 9 10 11 12 13 14 15 16 17 18 19 20 21 22 23 24 25 26 27 28 29 30 31 32 33 34 35 36 37 38 39 40 41 42 43 44 45 46 47 48 49 50
000
ASUS42 KKEY 272010
RWRKEY

FLORIDA REGIONAL WEATHER ROUNDUP FOR THE FLORIDA KEYS
NATIONAL WEATHER SERVICE KEY WEST FLORIDA
400 PM EDT SAT AUG 27 2016

...SOUTH FLORIDA AND THE KEYS...

CITY           SKY/WX    TMP DP  RH WIND       PRES   REMARKS
FORT MYERS     CLOUDY    80  76  87 E3        29.90R THUNDER
SW REGIONAL AP CLOUDY    85  74  69 E7        29.91R THUNDER HX  92
NAPLES         TSTM      78  78 100 SW7       29.92R
MIAMI          PTSUNNY   89  76  65 E14G25    29.87F HX 100
WEST KENDALL   MOSUNNY   89  76  65 E18       29.87F HX 100
HOMESTEAD      CLOUDY    88  78  74 NE16      29.85F HX 101
MARATHON       CLOUDY    84  76  76 NE10      29.84F HX  93
BOCA CHICA NAS TSTM      79  75  87 NE6       29.87R
KEY WEST INTL  TSTM      73  73 100 NE7       29.88S FOG

...INTERNATIONAL WEATHER...

CITY           SKY/WX    TMP DP  RH WIND       PRES   REMARKS
NASSAU BAHAMAS PTSUNNY   88  79  74 E10G23    29.87F HX 102
CANCUN MEXICO  PTSUNNY   90  77  66 NE10      29.85F HX 102
COZUMEL MEXICO PTSUNNY   88  77  70 NE8       29.84F HX 100

ADJACENT COASTAL WATERS...

STATION/POSITION TIME  SKY/WX   TEMP    WIND        PRES    WAVE
                                AIR SEA DIR/SP/G            HT/PER
                 (UTC)          (F)     (DEG/KT/KT) (MB)    (FT/S)
PULASKI SHOAL LI 2000            86      70/ 13/ 13 1011.5F
SAND KEY         1950            86      90/ 12/ 14 1011.5F
LONG KEY         1900            82 88   90/ 11/ 13 1011.8F
FOWEY ROCKS      2000            85 86   60/ 17/ 19 1011.7F

$$



USA.gov is the U.S. government's official web portal to all federal, state and local government web resources and services.